User: anonymous   Login
Location: Unspecified
(0.0000°N, 0.0000°E)
Time: 04:04:28
(UTC+00:00)
Language:

UWE-4 - Orbit

View from above orbital plane
View from above orbital plane
View from above satellite
View from above satellite

Ground track
Ground track

The orbit data is extracted from the following two-line orbital elements,

1 43880U 18111E   19052.86131520 -.00000075  00000-0 -14715-5 0  9995
2 43880  97.7262 322.5455 0013614  58.6107 301.6444 14.96138820  6488
Epoch (UTC): 21 February 2019 20:40:17
Eccentricity: 0.0013614
inclination: 97.7262°
perigee height: 569 km
apogee height: 588 km
right ascension of ascending node: 322.5455°
argument of perigee: 58.6107°
revolutions per day: 14.96138820
mean anomaly at epoch: 301.6444°
orbit number at epoch: 648

The dashed part of the orbit path shows where the satellite is in the earth's shadow,  

DLR